Date,TemperatureHighF,TemperatureAvgF,TemperatureLowF,DewpointHighF,DewpointAvgF,DewpointLowF,HumidityHigh,HumidityAvg,HumidityLow,PressureMaxIn,PressureMinIn,WindSpeedMaxMPH,WindSpeedAvgMPH,GustSpeedMaxMPH,PrecipitationSumIn
2014-1-1,21.6,8.4,-2.6,10.8,-2.2,-13.9,69,61,56,30.57,30.18,0,0,0,0.00
2014-1-2,8.4,-0.6,-6.7,-1.8,-13.0,-18.1,62,55,48,30.58,30.01,0,0,0,0.00
2014-1-3,8.1,-2.1,-7.1,-6.4,-14.7,-20.0,57,54,48,30.49,29.93,0,0,0,0.00
2014-1-4,23.0,6.8,-10.5,6.2,-7.5,-24.5,55,51,44,30.56,30.21,0,0,0,0.00
2014-1-5,32.4,20.5,8.4,22.4,10.0,-2.3,79,63,54,30.43,30.15,0,0,0,0.00
2014-1-6,49.6,40.2,28.2,48.5,37.8,17.6,98,91,60,30.21,29.20,2,0,4,0.34
2014-1-7,30.0,16.1,5.5,18.2,-6.8,-20.7,61,36,24,30.20,29.46,14,4,23,0.00
2014-1-8,23.2,11.7,4.6,-1.3,-8.2,-19.8,55,40,30,30.52,30.17,8,2,14,0.00
2014-1-9,25.5,14.9,5.5,4.3,-1.7,-7.0,61,48,30,30.72,30.41,8,1,15,0.00
2014-1-10,30.2,18.9,4.5,20.8,8.4,-8.3,71,63,51,30.74,30.31,7,1,11,0.00
2014-1-11,46.8,36.3,25.0,45.7,32.7,16.9,96,87,71,30.45,29.24,2,0,3,0.53
2014-1-12,48.6,41.6,34.2,47.2,32.9,20.8,98,73,46,30.00,29.26,0,0,1,0.01
2014-1-13,42.8,36.1,29.3,37.1,27.3,20.8,87,70,55,30.19,29.96,0,0,1,0.00
2014-1-14,44.1,41.5,38.8,42.2,39.5,36.9,95,92,87,30.04,29.60,0,0,1,0.90
2014-1-15,44.6,37.3,31.6,39.0,33.6,28.2,95,87,70,30.10,29.75,2,0,2,0.02
2014-1-16,36.1,34.2,31.6,33.0,31.2,28.2,91,89,86,30.08,29.85,3,0,4,0.00
2014-1-17,42.3,36.0,32.0,37.8,30.9,23.2,94,82,66,30.10,29.84,2,0,4,0.00
2014-1-18,35.6,32.1,28.8,28.5,26.2,22.9,87,79,69,30.09,29.61,2,0,4,0.01
2014-1-19,35.6,30.5,26.4,30.5,25.1,18.8,87,80,72,29.87,29.40,8,1,13,0.00
2014-1-20,38.1,28.4,10.0,27.8,18.8,-8.1,77,67,43,30.01,29.47,9,2,15,0.00
2014-1-21,15.8,9.3,3.2,-8.2,-12.1,-15.9,45,37,25,30.18,29.98,8,2,12,0.00
2014-1-22,16.3,7.5,1.6,-9.6,-14.0,-18.0,41,36,27,30.12,29.63,9,3,18,0.00
2014-1-23,22.5,7.5,0.7,-3.7,-12.9,-18.3,45,38,28,30.22,29.93,6,2,11,0.00
2014-1-24,19.2,8.2,0.5,-10.5,-14.4,-17.5,45,34,22,30.28,30.01,7,2,11,0.00
2014-1-25,34.5,25.5,11.3,24.8,11.2,-10.5,79,55,33,30.14,29.23,13,2,21,0.00
2014-1-26,25.7,17.4,11.5,18.3,-3.4,-16.2,73,42,21,30.01,29.36,10,3,17,0.00
2014-1-27,36.1,25.9,16.3,30.7,9.2,-12.6,82,51,23,30.09,29.52,12,3,20,0.07
2014-1-28,22.3,14.3,6.8,-9.1,-12.6,-15.6,38,29,21,30.37,30.05,8,2,16,0.00
2014-1-29,26.4,16.9,12.2,-4.1,-10.0,-16.0,45,29,21,30.36,29.89,8,2,26,0.00
2014-1-30,27.9,17.7,8.2,4.9,-1.8,-13.8,52,42,28,30.51,30.24,8,2,11,0.00
2014-1-31,41.0,29.9,21.6,18.2,11.5,3.6,65,47,30,30.33,30.04,9,2,16,0.00
2014-2-1,41.0,33.7,22.6,28.1,20.8,10.6,78,59,43,30.45,30.12,4,0,8,0.00
2014-2-2,42.3,37.1,33.3,33.0,28.9,26.6,78,72,66,30.16,29.85,5,0,8,0.01
2014-2-3,35.1,30.5,21.0,26.9,15.1,8.0,77,53,43,30.41,30.14,4,1,7,0.00
2014-2-4,35.4,23.8,13.8,15.1,10.4,4.1,66,57,41,30.57,30.33,3,0,6,0.00
2014-2-5,26.1,22.1,16.7,16.1,12.0,-63.0,74,65,50,30.52,29.80,6,2,11,0.00
2014-2-6,29.5,17.0,7.7,11.8,4.5,-1.8,70,58,41,30.35,30.09,5,0,7,0.00
2014-2-7,33.6,17.1,3.6,7.9,1.0,-7.8,62,49,31,30.32,30.11,8,1,9,0.00
2014-2-8,34.2,19.7,8.4,4.8,0.4,-6.0,56,43,26,30.34,30.12,5,1,9,0.00
2014-2-9,31.1,21.2,12.0,12.5,4.1,-1.6,69,48,31,30.33,30.03,5,0,6,0.00
2014-2-10,30.6,20.4,9.0,15.9,6.4,-7.1,73,55,33,30.33,29.98,5,1,11,0.00
2014-2-11,27.0,13.5,2.7,1.0,-7.6,-16.6,57,39,24,30.55,30.24,8,2,12,0.00
2014-2-12,35.6,15.0,0.9,0.3,-7.6,-17.0,46,36,21,30.63,30.47,5,2,7,0.00
2014-2-13,30.6,22.6,14.5,26.9,11.0,-2.8,87,61,44,30.61,29.33,10,2,21,0.00
2014-2-14,36.1,30.6,23.0,30.0,23.9,14.4,87,76,61,29.80,28.83,9,0,15,0.00
2014-2-15,39.2,28.2,19.8,26.9,20.0,13.2,83,71,55,30.02,29.60,0,0,0,0.00
2014-2-16,30.6,23.7,14.9,21.1,8.2,-5.5,80,53,30,30.06,29.55,0,0,0,0.56
2014-2-17,33.4,16.3,8.2,-0.3,-10.8,-17.7,41,29,20,30.49,30.06,14,3,21,0.00
2014-2-18,29.7,16.0,0.5,17.0,1.5,-17.5,77,53,32,30.52,30.04,5,1,8,0.00
2014-2-19,39.0,29.1,17.6,28.9,22.1,9.9,85,75,62,30.27,29.83,2,0,4,0.04
2014-2-20,50.7,37.4,27.3,33.5,25.8,20.4,87,66,33,30.31,29.86,2,0,4,0.00
2014-2-21,37.6,35.5,33.4,35.0,30.8,26.2,91,83,66,30.35,29.72,2,0,4,0.00
2014-2-22,46.9,38.5,31.8,33.7,28.1,17.1,89,68,38,29.97,29.74,3,0,8,0.00
2014-2-23,50.2,40.0,32.2,28.1,22.1,14.3,64,49,29,30.10,29.75,1,0,2,0.00
2014-2-24,37.6,30.3,18.3,14.7,5.2,-5.4,49,35,23,30.00,29.67,8,1,20,0.00
2014-2-25,29.3,18.6,11.5,1.0,-2.4,-6.2,54,40,23,30.08,29.83,7,1,9,0.00
2014-2-26,33.1,17.1,7.3,8.9,-1.7,-12.1,56,44,23,30.09,29.73,8,1,13,0.00
2014-2-27,27.7,15.7,4.3,5.3,-3.8,-12.2,55,42,27,30.01,29.65,11,1,14,0.00
2014-2-28,33.4,15.5,7.3,3.6,-8.7,-15.6,63,34,21,30.61,29.91,10,3,16,0.00
2014-3-1,31.8,19.3,1.0,14.2,-0.5,-17.0,53,41,29,30.62,30.12,6,2,8,0.00
2014-3-2,35.6,28.6,17.2,15.1,8.0,-5.0,55,42,28,30.20,29.96,6,2,10,0.00
2014-3-3,27.1,15.9,6.6,-2.8,-11.7,-20.7,43,28,21,30.46,30.14,8,2,14,0.00
2014-3-4,32.5,16.3,1.0,9.2,-6.8,-22.4,52,35,21,30.50,30.21,8,1,11,0.00
2014-3-5,29.1,18.2,7.9,7.1,-0.9,-9.2,60,43,25,30.69,30.31,6,1,10,0.00
2014-3-6,45.1,17.6,0.0,7.0,-7.7,-20.0,46,33,20,30.74,30.54,4,1,7,0.00
2014-3-7,41.2,25.1,9.5,22.7,4.7,-15.5,72,43,21,30.66,30.07,2,0,4,0.00
2014-3-8,52.5,32.8,18.5,25.5,17.7,10.1,75,56,30,30.13,29.75,2,0,3,0.00
2014-3-9,42.6,29.2,21.2,11.1,3.8,-6.9,52,35,21,30.03,29.86,4,0,9,0.00
2014-3-10,42.1,30.4,23.9,23.2,12.0,-4.2,68,47,28,30.05,29.70,5,1,7,0.00
2014-3-11,49.5,38.3,31.5,37.0,29.1,22.0,87,70,48,29.85,29.50,4,1,13,0.00
2014-3-12,39.2,35.0,25.7,34.3,28.4,19.5,86,77,63,29.91,29.18,5,1,9,0.00
2014-3-13,25.3,18.3,12.7,19.2,6.7,-3.8,77,61,44,29.98,29.17,0,0,0,0.00
2014-3-14,36.0,23.0,8.2,20.7,3.3,-9.3,59,43,26,30.21,29.88,10,1,12,0.00
2014-3-15,52.0,39.8,33.8,35.8,28.9,19.8,83,65,50,30.00,29.60,2,0,4,0.00
2014-3-16,35.8,25.8,13.8,24.1,-0.3,-16.0,63,33,21,30.32,29.85,10,2,56,0.00
2014-3-17,34.7,18.0,8.4,-0.2,-12.1,-20.7,31,25,21,30.37,30.02,7,2,11,0.00
2014-3-18,47.1,23.6,8.8,13.1,-1.0,-13.7,59,35,20,30.50,30.30,5,1,8,0.00
2014-3-19,40.8,30.0,17.2,24.2,16.8,7.0,71,58,42,30.56,30.18,1,0,2,0.00
2014-3-20,48.7,38.0,31.6,39.6,30.5,22.7,90,75,56,30.22,29.54,2,0,4,0.00
2014-3-21,43.9,35.6,28.8,25.0,19.7,14.9,67,53,35,30.09,29.67,2,0,3,0.00
2014-3-22,39.7,32.2,25.2,33.0,20.3,10.8,79,62,52,30.17,29.61,7,1,10,0.00
2014-3-23,38.8,29.5,14.9,22.5,7.6,-11.6,70,43,21,30.21,29.92,11,3,15,0.00
2014-3-24,33.3,19.3,9.9,-0.5,-8.1,-14.0,42,29,21,30.28,30.02,9,3,14,0.00
2014-3-25,40.1,24.1,8.6,12.9,2.5,-9.0,53,40,21,30.29,30.04,10,2,12,0.00
2014-3-26,35.1,28.1,24.3,12.6,7.3,0.9,57,42,25,30.17,29.52,14,5,22,0.00
2014-3-27,43.2,27.2,15.1,19.5,-1.7,-13.7,55,29,21,30.34,29.96,15,3,30,0.00
2014-3-28,45.5,38.4,33.8,38.2,28.0,18.8,89,67,53,30.36,29.85,8,2,11,0.00
2014-3-29,55.0,43.7,36.5,39.8,34.6,31.6,92,72,42,30.36,30.02,5,1,8,0.00
2014-3-30,38.5,35.4,32.7,35.5,31.0,28.1,89,84,79,30.15,29.73,0,0,2,0.00
2014-3-31,38.7,34.6,31.6,28.2,26.7,24.0,83,73,62,30.11,29.82,7,0,12,0.00
2014-4-1,59.7,40.1,32.4,24.7,18.5,2.0,67,45,21,30.19,30.03,0,0,1,0.00
2014-4-2,49.3,36.0,28.4,25.2,16.0,5.8,71,45,22,30.31,30.06,2,0,3,0.00
2014-4-3,52.7,38.7,27.3,30.8,22.9,17.7,83,56,27,30.24,30.05,2,0,4,0.00
2014-4-4,48.0,37.1,26.6,31.2,21.7,15.0,81,55,35,30.34,29.87,4,0,7,0.00
2014-4-5,49.3,39.8,35.6,40.8,33.8,24.4,90,79,62,30.10,29.63,8,1,16,0.00
2014-4-6,52.3,39.6,34.9,24.8,20.1,14.3,63,47,22,30.23,29.92,11,2,14,0.00
2014-4-7,56.7,43.5,30.7,32.7,25.3,17.1,72,50,30,30.39,30.07,9,1,14,0.00
2014-4-8,55.4,46.4,39.7,48.8,42.5,33.0,91,86,74,30.11,29.30,10,0,15,0.00
2014-4-9,52.9,43.0,33.1,40.6,26.0,7.8,88,55,22,30.01,29.48,1,0,2,0.00
2014-4-10,53.8,41.1,29.1,31.7,22.4,11.1,64,48,36,30.19,29.97,0,0,1,0.00
2014-4-11,68.0,53.8,41.4,44.7,39.4,30.6,83,60,32,30.09,29.91,1,0,2,0.00
2014-4-12,70.7,55.5,44.1,38.8,31.4,20.8,70,44,16,30.30,30.07,2,0,4,0.34
2014-4-13,50.0,44.4,40.3,43.3,36.6,29.5,96,76,45,30.41,29.94,7,1,11,0.15
2014-4-14,65.5,50.6,37.2,54.3,45.8,36.2,99,85,63,30.12,29.84,10,1,12,0.00
2014-4-15,54.1,51.3,43.7,52.8,50.2,43.0,99,96,87,29.99,29.60,2,0,4,0.17
2014-4-16,44.6,34.9,28.0,43.0,22.0,10.8,99,63,30,30.74,29.75,97,0,97,0.31
2014-4-17,50.9,34.7,23.2,26.3,18.9,-88.9,75,54,30,30.94,30.70,49,0,61,0.25
2014-4-18,50.7,36.7,25.2,34.2,27.3,20.1,84,70,48,30.84,30.26,0,0,1,0.00
2014-4-19,58.3,43.8,32.4,38.1,30.3,22.6,87,62,34,30.50,30.17,2,0,4,0.02
2014-4-20,56.5,42.5,30.0,32.8,25.6,18.3,79,53,24,30.64,30.33,3,0,4,0.00
2014-4-21,59.7,46.7,36.3,41.1,36.9,29.8,87,70,44,30.42,29.86,0,0,2,0.00
2014-4-22,64.8,50.9,40.3,46.7,42.8,37.0,94,76,45,29.91,29.55,5,0,8,0.08
2014-4-23,59.7,50.0,44.2,53.7,42.6,34.1,99,77,51,29.60,29.41,5,1,8,0.09
2014-4-24,57.9,47.2,40.3,34.5,31.1,28.2,67,54,35,29.93,29.50,14,2,18,0.01
2014-4-25,65.3,49.7,35.8,37.2,31.4,22.1,76,53,21,30.08,29.87,4,1,6,0.00
2014-4-26,48.7,42.6,41.0,41.9,39.0,35.0,96,87,66,30.01,29.85,4,0,7,0.24
2014-4-27,57.0,45.0,39.0,45.2,40.2,34.4,99,84,56,30.11,29.85,5,1,9,0.05
2014-4-28,54.0,47.1,40.8,42.7,38.0,34.0,79,71,61,30.38,29.98,4,1,7,0.00
2014-4-29,61.0,47.5,40.5,40.4,35.6,33.0,77,65,41,30.68,30.38,6,1,10,0.01
2014-4-30,44.8,42.1,39.9,39.1,36.4,34.2,95,80,73,30.76,30.37,8,2,11,0.00
2014-5-1,57.4,48.1,40.1,53.7,46.5,39.0,99,94,84,30.38,29.72,4,0,6,0.05
2014-5-2,72.1,56.5,46.6,51.6,44.4,38.4,99,69,31,29.85,29.64,3,0,4,0.00
2014-5-3,68.7,54.4,43.9,45.8,42.3,38.8,85,66,39,29.95,29.79,4,0,7,0.00
2014-5-4,61.7,49.5,44.8,51.5,45.5,40.8,97,87,60,29.81,29.56,8,0,13,0.33
2014-5-5,69.3,51.4,40.3,51.0,43.0,39.3,99,76,41,29.94,29.66,3,0,4,0.06
2014-5-6,62.8,51.0,41.5,44.9,39.8,36.0,90,67,43,30.13,29.83,0,0,3,0.00
2014-5-7,72.1,54.3,39.9,42.5,37.4,31.8,86,57,26,30.25,30.12,1,0,2,0.00
2014-5-8,75.2,56.1,40.3,40.1,35.8,25.7,79,52,17,30.34,30.13,1,0,2,0.00
2014-5-9,133.5,49.6,43.2,46.6,38.8,29.6,95,69,33,30.41,30.19,6,1,8,0.08
2014-5-10,75.2,58.4,47.7,65.0,54.7,46.0,98,89,68,30.21,29.73,8,2,13,0.25
2014-5-11,86.0,68.4,59.4,59.0,42.3,27.5,80,43,14,29.97,29.75,5,1,12,0.17
2014-5-12,86.4,67.6,50.9,52.0,42.9,36.5,70,44,21,30.19,29.90,8,2,14,0.00
2014-5-13,66.6,53.5,44.8,45.6,41.4,37.2,80,65,39,30.43,30.18,9,2,14,0.00
2014-5-14,59.9,51.5,44.4,48.7,44.6,37.8,91,78,63,30.50,30.41,11,2,15,0.00
2014-5-15,73.6,57.5,49.1,59.7,52.8,46.8,94,85,60,30.45,30.30,8,3,14,0.00
2014-5-16,75.4,61.2,54.5,60.1,56.0,52.7,96,84,57,30.33,30.11,12,4,19,0.12
2014-5-17,62.8,58.4,54.3,59.8,57.2,53.5,99,96,87,30.11,29.96,14,3,24,1.07
2014-5-18,75.6,59.7,50.4,54.6,49.7,44.5,99,73,36,30.18,30.03,5,0,9,0.00
2014-5-19,61.0,54.3,49.8,51.5,45.9,38.7,99,75,54,30.10,29.91,3,0,6,1.37
2014-5-20,72.1,58.7,48.2,53.4,50.5,47.7,99,77,48,30.09,29.96,6,0,9,0.01
2014-5-21,73.6,59.9,51.1,56.4,52.3,49.3,94,77,52,30.06,29.95,6,0,8,0.00
2014-5-22,64.4,55.2,49.5,56.5,51.4,48.6,99,88,71,30.02,29.92,3,0,4,0.00
2014-5-23,60.4,54.1,50.7,55.3,51.8,49.6,99,92,79,30.07,29.95,3,0,5,0.00
2014-5-24,71.1,57.0,50.5,55.2,50.5,46.1,99,81,49,30.14,30.05,4,0,6,0.00
2014-5-25,72.7,57.1,48.4,57.0,51.2,46.5,96,82,53,30.16,30.01,6,1,14,0.00
2014-5-26,77.4,63.0,52.2,62.1,57.2,50.1,97,83,58,30.05,29.73,7,1,12,0.22
2014-5-27,62.1,52.6,46.0,60.6,51.9,45.2,99,97,95,30.12,29.83,4,0,7,11.87
2014-5-28,61.2,48.7,43.3,53.6,46.8,42.1,99,94,68,30.32,30.11,4,0,8,0.46
2014-5-29,73.8,54.4,40.5,51.1,44.0,40.2,99,73,33,30.40,30.21,4,0,7,0.00
2014-5-30,68.5,55.6,46.2,54.5,48.1,43.4,97,78,53,30.24,30.06,3,0,6,0.00
2014-5-31,76.3,58.2,49.1,55.3,47.7,39.1,96,71,34,30.33,30.14,8,0,11,0.00
2014-6-1,80.2,60.9,46.2,52.5,46.2,39.9,88,62,31,30.45,30.26,6,1,11,0.00
2014-6-2,81.9,65.1,51.4,57.1,51.9,45.9,92,65,38,30.27,29.99,7,1,11,0.00
2014-6-3,79.0,63.7,51.4,58.1,51.3,42.2,91,67,42,30.09,29.97,7,1,13,0.00
2014-6-4,55.8,53.3,50.5,54.9,51.8,45.8,98,95,81,30.01,29.80,2,0,4,4.30
2014-6-5,62.1,57.6,53.6,60.9,56.8,52.8,99,97,95,29.90,29.70,2,0,4,0.18
2014-6-6,84.6,65.6,53.6,62.4,56.8,52.8,99,76,42,29.83,29.71,5,1,11,0.00
2014-6-7,95.2,73.2,57.6,63.0,58.3,54.7,92,63,32,29.91,29.70,4,1,8,0.00
2014-6-8,90.9,74.9,63.0,63.1,59.1,55.7,82,60,35,29.91,29.71,2,0,4,0.00
2014-6-9,77.7,69.1,61.9,65.1,60.2,52.4,85,74,44,30.24,29.81,4,0,8,4.48
2014-6-10,78.4,66.6,56.5,67.3,60.2,52.4,94,81,61,30.30,30.00,4,0,10,0.07
2014-6-11,78.4,64.0,52.0,57.5,52.9,49.9,95,70,38,30.45,30.30,4,0,8,0.00
2014-6-12,67.5,61.2,57.9,57.9,54.1,49.6,89,78,56,30.46,30.34,4,0,8,0.00
2014-6-13,60.8,57.5,55.9,56.6,55.1,53.5,99,92,80,30.35,30.04,5,1,11,20.66
2014-6-14,76.5,63.5,56.1,67.1,58.6,55.8,99,85,64,30.05,29.97,2,0,13,0.01
2014-6-15,80.6,65.4,55.9,61.7,57.2,51.2,99,77,43,30.18,30.03,4,1,8,5.31
2014-6-16,88.3,67.0,54.3,55.0,51.3,49.3,85,59,29,30.36,30.15,2,0,4,0.00
2014-6-18,81.5,73.6,63.3,71.1,63.6,58.4,97,72,54,29.99,29.76,2,0,4,0.01
2014-6-19,88.2,73.9,61.0,60.6,52.4,40.3,87,52,23,30.09,29.95,4,1,10,0.00
2014-6-20,73.4,62.8,54.7,49.9,46.1,42.5,75,56,36,30.17,30.08,5,1,11,0.00
2014-6-21,81.0,63.2,49.6,54.5,49.3,44.4,84,62,37,30.24,30.02,4,1,7,0.00
2014-6-22,77.9,62.7,50.4,57.1,51.5,46.2,88,68,46,30.26,30.13,4,0,7,0.00
2014-6-23,81.9,66.0,53.1,60.6,53.9,49.1,90,68,38,30.40,30.23,5,1,11,0.00
2014-6-24,75.0,65.5,59.2,62.2,57.8,54.9,88,77,61,30.36,30.11,8,2,14,0.00
2014-6-25,73.4,67.2,61.5,67.6,62.5,56.7,97,85,77,30.11,30.00,4,0,9,2.82
2014-6-26,65.7,63.1,57.2,64.0,61.6,55.2,98,95,86,30.21,29.95,3,0,6,10.76
2014-6-27,88.5,70.5,52.7,61.1,54.3,47.7,97,60,31,30.35,30.21,3,0,4,0.00
2014-6-28,88.9,71.3,55.2,63.8,56.2,48.0,93,62,33,30.47,30.30,1,0,5,0.00
2014-6-29,90.5,77.1,61.0,65.8,58.6,52.8,80,54,34,30.40,30.11,4,0,9,0.00
2014-6-30,88.3,73.9,62.8,70.0,63.6,57.3,88,71,49,30.16,29.90,5,1,8,0.00
2014-7-1,89.4,75.8,67.8,72.5,67.8,64.3,90,77,55,29.95,29.77,6,1,11,0.00
2014-7-2,89.6,74.9,67.3,74.1,69.0,64.1,95,83,59,30.00,29.84,8,1,16,3.45
2014-7-3,82.6,72.3,66.4,75.2,69.5,64.9,96,91,74,30.10,29.98,4,1,8,1.55
2014-7-4,72.9,69.2,64.2,70.7,67.9,63.4,99,95,91,30.14,29.98,2,0,5,15.84
2014-7-5,73.9,64.1,56.7,63.4,57.1,49.6,99,80,48,30.13,29.89,4,0,6,19.96
2014-7-6,91.6,74.4,53.8,64.3,58.6,50.9,91,60,32,30.19,29.81,4,0,8,0.00
2014-7-7,85.5,74.7,63.9,68.9,64.0,52.4,95,71,44,30.19,29.70,4,0,50,0.02
2014-7-8,89.8,75.5,68.2,74.6,69.2,64.4,97,82,55,29.81,29.67,5,1,11,0.00
2014-7-9,90.1,75.1,66.0,68.8,65.8,62.9,96,76,43,29.85,29.75,7,2,15,0.00
2014-7-10,85.5,72.6,63.7,66.7,62.9,56.1,95,74,49,30.23,29.97,2,0,3,0.18
2014-7-11,86.9,68.1,58.5,60.4,56.1,52.9,87,67,39,30.40,30.24,3,0,6,0.00
2014-7-12,86.0,70.7,58.6,64.8,59.6,52.1,91,70,47,30.35,30.18,6,1,10,0.00
2014-7-13,78.3,68.2,63.7,66.7,63.2,61.0,93,85,67,30.24,30.06,6,1,12,0.00
2014-7-14,91.2,75.1,64.9,73.1,67.2,63.5,97,79,44,29.98,29.83,4,1,11,0.01
2014-7-15,85.1,72.5,67.5,75.0,69.3,66.0,97,90,67,29.95,29.78,4,1,7,5.08
2014-7-16,71.2,68.1,66.2,70.4,67.1,65.2,98,97,94,29.95,29.87,5,1,10,2.44
2014-7-17,84.6,70.4,63.1,67.3,64.0,59.8,99,82,53,30.16,29.94,4,0,8,0.00
2014-7-18,86.2,69.7,53.8,64.1,59.4,50.7,95,73,44,30.34,29.65,4,0,7,0.00
2014-7-19,90.7,72.7,61.0,65.6,61.6,52.4,92,70,41,29.92,29.62,4,0,8,0.00
2014-7-20,74.5,67.5,62.2,66.4,63.0,60.6,97,82,10,29.86,29.78,1,0,97,0.00
2014-7-21,86.0,69.8,55.6,66.5,61.0,52.4,98,76,44,29.99,29.69,4,0,50,0.00
2014-7-22,87.8,72.6,60.6,69.4,64.5,59.3,97,78,51,29.88,29.60,2,0,3,0.00
2014-7-23,92.1,77.4,70.2,75.1,69.5,65.1,95,78,56,29.61,29.22,2,0,4,0.25
2014-7-24,81.5,70.1,60.6,70.3,65.4,58.0,99,86,58,29.58,29.33,3,0,5,0.31
2014-7-25,86.4,68.3,54.3,65.4,59.0,52.3,95,75,45,29.69,29.50,2,0,3,0.00
2014-7-26,84.9,72.7,61.2,66.7,63.4,58.2,93,75,48,29.64,29.46,4,0,8,0.00
2014-7-27,72.3,66.2,60.8,67.0,64.3,58.8,98,94,82,29.54,29.38,6,1,10,0.93
2014-7-28,76.8,67.7,64.6,74.1,66.7,63.7,99,97,82,29.39,29.13,7,1,11,0.98
2014-7-29,81.7,67.4,60.4,65.2,62.1,59.7,99,84,52,29.64,29.18,3,0,5,0.00
2014-7-30,77.9,65.6,59.5,70.8,62.9,58.4,99,91,65,29.77,29.64,2,0,4,0.51
2014-7-31,79.7,67.8,60.1,66.9,62.7,59.8,99,85,57,29.86,29.77,4,0,10,0.00
2014-8-1,84.7,70.6,61.9,70.3,64.9,60.6,97,84,54,29.93,29.83,4,1,9,0.00
2014-8-2,76.8,67.9,61.7,70.4,64.1,58.8,97,88,69,29.93,29.83,4,0,9,0.01
2014-8-3,78.4,66.3,57.4,66.3,60.7,56.5,98,83,63,29.90,29.75,4,0,8,0.00
2014-8-4,84.0,69.0,59.2,69.0,63.4,58.1,98,84,55,29.78,29.65,2,0,3,0.00
2014-8-5,88.2,72.5,62.6,69.7,65.1,61.7,99,81,46,29.71,29.51,2,0,4,0.02
2014-8-6,82.6,68.0,61.5,69.7,64.7,60.6,99,90,56,29.52,29.41,2,0,2,0.66
2014-8-7,76.3,62.9,55.4,66.0,60.6,55.1,99,93,66,29.63,29.51,2,0,2,0.02
2014-8-8,87.1,68.8,56.7,65.9,60.7,56.4,99,78,43,29.73,29.59,2,0,7,0.01
2014-8-9,88.5,69.7,60.1,67.1,62.0,58.1,97,79,45,29.79,29.65,0,0,1,0.08
2014-8-10,86.2,69.3,58.5,67.4,62.3,57.9,98,81,47,29.84,29.73,0,0,1,0.00
2014-8-11,87.3,71.2,0.0,69.7,64.2,58.8,96,79,51,29.84,29.72,0,0,1,0.00
2014-8-12,80.8,71.4,63.7,69.0,65.7,62.8,98,83,63,29.85,29.73,97,0,97,0.00
2014-8-13,67.6,64.5,62.4,66.2,63.5,61.8,98,96,94,29.74,29.38,0,0,0,4.05
2014-8-14,81.1,67.9,59.9,68.6,62.9,57.3,99,85,54,29.54,29.31,0,0,1,0.47
2014-8-15,68.7,58.7,54.0,62.7,56.5,52.7,97,93,76,29.63,29.53,0,0,0,0.00
2014-8-16,140.0,70.1,53.8,99.9,59.8,50.7,91,75,44,30.17,29.89,4,1,8,0.00
2014-8-17,72.3,64.8,59.2,66.6,60.6,-37.3,97,87,71,29.90,29.74,77,0,77,0.06
2014-8-18,79.3,64.7,56.5,60.1,56.8,52.3,99,78,48,29.88,29.76,0,0,0,0.02
2014-8-19,81.9,64.2,52.2,62.9,55.8,50.5,96,76,48,29.99,29.88,0,0,0,0.00
2014-8-20,85.5,67.1,54.3,65.7,58.7,52.8,98,77,46,30.08,29.98,0,0,0,0.00
2014-8-21,75.9,64.3,57.2,66.0,60.8,55.7,97,89,62,30.15,30.07,0,0,0,0.11
2014-8-22,73.9,63.9,58.1,66.9,61.5,57.1,99,92,73,30.18,30.11,0,0,0,0.06
2014-8-23,77.4,64.1,57.6,66.2,59.3,54.2,99,86,60,30.17,30.10,0,0,0,0.00
2014-8-24,88.2,69.8,54.7,67.1,61.1,53.3,98,70,10,30.16,29.99,0,0,0,0.00
2014-8-25,91.2,73.4,62.2,70.8,64.8,60.2,94,73,10,30.13,29.96,0,0,1,0.00
2014-8-26,85.1,71.1,62.2,70.6,64.9,61.1,97,82,57,30.13,29.95,0,0,1,0.00
2014-8-27,90.9,75.0,64.2,74.4,68.2,62.8,97,81,54,29.96,29.67,0,0,1,0.00
2014-8-28,80.4,68.9,59.5,66.0,60.8,51.5,93,77,43,29.94,29.72,0,0,0,0.00
2014-8-29,79.0,64.4,55.0,57.2,53.6,50.1,91,71,37,30.33,29.95,0,0,1,0.00
2014-8-30,77.0,62.4,54.7,64.2,57.0,51.6,96,84,57,30.38,30.15,0,0,0,0.00
2014-8-31,85.1,70.7,62.1,72.2,66.6,60.3,96,88,64,30.15,29.85,58,0,0,0.32
2014-9-1,88.2,74.2,67.8,75.1,69.6,66.2,99,87,53,29.92,29.79,0,0,0,0.01
2014-9-2,86.7,73.4,64.2,75.5,69.1,63.4,99,87,66,29.91,29.66,0,0,0,0.00
2014-9-3,86.0,72.9,63.9,68.9,63.9,58.1,99,76,46,29.99,29.62,0,0,1,0.01
2014-9-4,84.4,69.2,58.1,62.3,58.6,54.9,90,71,42,30.19,29.99,0,0,1,0.00
2014-9-5,86.4,71.8,61.5,71.0,65.1,59.3,95,81,56,30.13,29.85,2,0,2,0.00
2014-9-6,86.7,74.0,64.4,75.6,69.3,63.6,97,86,64,29.86,29.55,1,0,2,0.39
2014-9-7,72.3,62.3,57.4,63.4,60.2,56.5,98,93,62,30.10,29.79,0,0,1,0.01
2014-9-8,76.8,59.8,53.8,57.9,53.0,50.5,92,79,44,29.92,29.45,4,0,8,0.00
2014-9-9,72.0,58.0,45.0,56.0,51.6,44.2,99,82,49,29.98,29.74,0,0,2,0.00
2014-9-10,72.9,58.0,54.0,60.9,55.7,52.5,99,86,10,29.75,29.53,0,0,1,0.00
2014-9-11,68.0,62.4,59.2,63.5,61.2,58.2,99,96,84,29.53,29.21,1,0,2,0.12
2014-9-12,76.8,56.6,0.0,62.3,53.4,44.1,98,87,44,29.98,29.30,4,0,8,0.00
2014-9-13,65.7,53.6,43.9,55.4,48.6,42.5,98,85,57,30.09,29.79,2,0,4,0.06
2014-9-14,64.8,53.9,45.0,54.9,48.2,41.2,99,82,56,29.95,29.77,3,0,4,0.01
2014-9-15,65.7,51.6,41.4,51.0,44.7,40.6,99,80,51,30.01,29.82,2,0,3,0.00
2014-9-16,60.8,55.7,52.0,57.8,54.0,50.6,98,94,85,29.82,29.64,2,0,5,0.09
2014-9-17,71.2,57.1,47.5,57.2,52.0,47.2,99,85,49,29.73,29.61,0,0,3,0.00
2014-9-18,71.1,55.7,45.3,57.1,49.1,37.4,99,80,57,29.86,29.59,3,0,6,0.00
2014-9-19,60.8,47.5,36.1,39.0,35.3,29.0,90,66,33,30.16,29.86,5,0,8,0.00
2014-9-20,62.6,58.4,44.4,56.7,52.5,38.0,94,81,70,30.12,29.76,7,2,13,0.00
2014-9-21,67.6,61.6,0.0,67.1,62.2,58.9,99,96,95,29.61,29.13,2,0,4,0.69
2014-9-22,70.3,60.9,46.2,65.0,53.4,39.9,99,77,57,29.71,29.07,2,0,4,0.02
2014-9-23,68.2,53.6,41.9,52.0,46.2,39.1,94,77,54,30.12,29.71,2,0,4,0.00
2014-9-24,64.4,53.6,46.2,52.9,48.8,45.0,99,85,57,30.38,30.12,3,0,6,0.00
2014-9-25,68.0,53.3,43.5,56.1,49.0,43.0,99,87,55,30.26,29.96,2,0,4,0.00
2014-9-26,76.5,58.7,46.2,62.5,53.9,45.4,99,86,57,29.97,29.81,1,0,2,0.00
2014-9-27,140.0,67.8,51.4,99.9,60.2,44.5,99,81,53,30.02,29.80,1,0,2,0.00
2014-9-28,76.8,62.4,56.5,65.0,58.7,52.4,98,89,44,30.05,29.84,4,0,8,0.00
2014-9-29,71.4,61.4,55.6,64.1,58.5,53.6,99,90,76,30.06,29.91,0,0,3,0.00
2014-9-30,61.9,56.1,51.8,56.2,53.2,50.4,96,90,80,30.10,30.03,0,0,1,0.00
2014-10-1,61.2,57.1,55.2,56.4,54.4,53.2,95,91,82,30.19,30.08,2,0,4,0.00
2014-10-2,62.8,55.3,48.2,53.5,50.6,46.5,94,85,66,30.24,30.16,3,0,5,0.00
2014-10-3,76.8,52.1,43.3,53.3,48.7,42.8,99,89,44,30.22,29.85,5,0,8,0.00
2014-10-4,60.1,56.8,53.6,59.8,56.2,51.8,99,98,94,29.86,29.45,4,0,6,0.13
2014-10-5,64.0,57.4,45.9,60.4,53.2,43.1,99,87,61,29.83,29.41,5,0,9,0.31
2014-10-6,63.7,51.0,39.6,50.4,44.4,39.2,99,81,47,30.13,29.83,3,0,4,0.00
2014-10-7,76.8,59.1,52.0,59.0,55.4,49.3,95,89,44,30.14,29.84,4,0,8,0.00
2014-10-8,68.4,61.4,55.0,62.3,56.2,47.4,99,84,58,29.89,29.49,4,0,8,0.13
2014-10-9,62.1,53.6,45.9,47.8,40.1,33.8,77,61,39,29.85,29.65,6,0,13,0.00
2014-10-10,61.0,50.9,40.3,44.6,39.8,36.5,89,68,43,30.07,29.85,6,0,8,0.00
2014-10-11,54.7,45.6,40.3,46.2,40.8,37.8,94,84,62,30.14,30.00,2,0,3,0.00
2014-10-12,59.9,47.2,36.9,44.5,39.3,34.8,97,77,46,30.25,30.07,4,0,8,0.00
2014-10-13,63.5,49.6,36.9,51.1,43.4,34.5,95,81,52,30.31,30.17,7,1,11,0.00
2014-10-14,70.7,62.7,53.2,62.1,58.2,50.9,95,85,10,30.17,30.00,4,2,11,0.00
2014-10-15,72.9,64.1,53.8,65.8,61.1,50.7,98,90,10,30.03,29.88,57,2,57,0.00
2014-10-16,76.8,66.1,53.8,65.3,61.1,50.7,99,87,44,30.20,29.81,8,1,13,0.98
2014-10-17,70.9,61.8,55.6,63.2,58.7,53.4,99,90,57,29.81,29.67,4,0,6,0.25
2014-10-18,56.8,55.4,54.7,54.6,53.2,52.4,95,92,90,29.79,29.75,4,0,5,0.00
2014-10-19,76.8,59.1,43.7,57.9,47.8,27.2,91,68,44,30.10,29.90,4,1,8,0.00
2014-10-20,46.9,44.8,42.8,35.6,33.5,27.2,75,65,52,30.13,29.96,2,0,3,0.00
2014-10-21,52.7,47.7,42.8,51.7,45.2,35.1,99,91,74,30.20,30.12,4,0,8,0.71
2014-10-22,47.8,46.6,46.0,47.6,46.2,45.2,99,98,97,30.27,30.13,6,2,11,0.43
2014-10-23,50.2,47.8,45.9,49.9,47.5,45.1,99,99,97,30.13,29.83,3,1,5,1.25
2014-10-24,51.3,47.5,46.0,49.2,46.0,44.1,99,95,84,29.84,29.77,3,1,5,0.21
2014-10-25,64.8,51.7,43.9,47.5,43.3,39.5,91,75,45,29.85,29.54,7,1,10,0.00
2014-10-26,60.1,49.6,42.1,50.7,42.6,37.3,98,78,50,29.72,29.50,6,1,11,0.00
2014-10-27,56.7,47.2,39.4,40.5,38.2,35.6,91,72,53,30.13,29.72,7,2,11,0.00
2014-10-28,54.3,48.8,44.2,47.6,42.9,37.8,92,80,68,30.23,30.04,4,0,8,0.00
2014-10-29,59.2,52.6,49.1,57.0,51.1,47.5,99,95,85,30.05,29.84,4,0,7,0.09
2014-10-30,57.7,46.5,37.4,51.2,41.6,33.9,99,84,55,30.09,29.89,4,0,7,0.00
2014-10-31,52.5,42.1,33.1,38.4,33.5,29.9,93,73,46,30.22,30.08,3,0,6,0.00
2014-11-1,42.1,39.3,36.7,39.9,36.9,32.7,97,91,81,30.18,29.99,6,2,14,0.31
2014-11-2,36.7,34.3,31.6,35.4,31.9,22.3,97,91,69,30.03,29.68,10,2,17,0.02
2014-11-3,49.5,37.3,30.0,25.9,19.0,12.4,69,49,29,30.18,29.81,9,1,15,0.22
2014-11-4,48.9,42.7,33.6,44.5,33.3,17.4,88,70,49,30.30,30.11,4,1,8,0.01
2014-11-5,61.7,49.5,42.8,45.5,39.7,30.1,93,71,45,30.21,30.02,8,1,11,0.00
2014-11-6,49.6,43.6,38.1,44.1,38.3,30.5,98,82,64,30.22,29.63,6,0,8,0.24
2014-11-7,44.8,41.3,35.1,43.5,36.6,24.1,99,84,63,29.81,29.54,10,3,15,0.05
2014-11-8,46.2,37.4,29.8,27.1,22.7,19.3,68,56,40,30.04,29.81,61,2,61,0.00
2014-11-9,76.8,45.9,34.5,57.2,34.5,25.6,78,65,44,30.01,29.82,5,1,8,0.00
2014-11-10,54.5,37.9,30.7,36.9,31.2,27.2,92,78,46,30.21,29.99,5,0,7,0.00
2014-11-11,55.9,47.5,35.2,50.6,44.0,31.0,97,88,76,30.22,29.95,11,2,16,0.00
2014-11-12,54.7,49.9,39.6,53.8,48.8,36.9,99,96,85,29.96,29.81,6,1,8,0.00
2014-11-13,47.7,39.5,31.5,36.9,31.5,28.1,92,74,50,30.06,29.92,4,1,8,0.00
2014-11-14,39.2,33.6,27.3,36.2,27.5,16.2,94,79,54,30.04,29.89,6,1,9,0.20
2014-11-15,76.8,26.6,24.8,53.3,15.5,11.7,65,63,44,30.10,29.54,4,1,8,0.00
2014-11-16,39.7,33.8,23.9,23.9,19.4,11.8,66,55,51,30.08,29.92,7,2,11,0.01
2014-11-17,76.8,34.9,32.9,53.3,29.4,23.1,96,82,44,29.92,29.20,4,1,10,0.59
2014-11-18,39.6,32.5,24.1,37.0,19.3,2.3,98,63,29,29.61,29.20,10,3,23,0.00
2014-11-19,37.0,28.1,22.5,13.5,6.8,1.3,53,41,22,29.89,29.61,10,2,15,0.00
2014-11-20,42.3,31.5,26.2,21.4,13.3,5.6,52,47,38,29.85,29.55,8,2,13,0.00
2014-11-21,32.4,26.2,19.9,11.3,4.5,-3.1,50,39,29,30.17,29.63,14,3,17,0.00
2014-11-22,35.8,27.8,17.4,14.4,7.8,-0.7,55,43,30,30.24,29.75,8,2,14,0.00
2014-11-23,76.8,42.1,33.6,53.3,30.7,13.2,92,65,42,29.95,29.75,7,0,8,0.00
2014-11-24,56.5,50.5,41.4,56.2,49.6,39.5,99,97,92,29.92,29.37,21,1,34,0.65
2014-11-25,58.1,52.5,40.8,56.6,41.6,27.3,99,70,36,29.91,29.44,8,1,14,0.01
2014-11-26,40.6,35.9,31.5,31.4,29.3,26.0,94,78,59,30.12,29.61,4,0,8,0.00
2014-11-27,31.5,28.7,28.4,29.9,27.3,26.9,95,94,94,29.68,29.59,0,0,0,0.00
2014-11-28,28.4,28.4,28.4,26.9,26.9,26.9,94,94,94,29.67,29.67,0,0,0,0.00
2014-11-29,76.8,24.7,13.8,53.3,17.1,7.0,94,73,44,29.92,29.42,7,0,9,0.00
2014-11-30,43.0,35.6,22.1,41.0,32.3,13.9,96,87,71,29.86,29.49,4,1,7,0.24
2014-12-1,57.7,42.5,30.7,46.1,35.1,16.6,92,76,52,30.00,29.47,10,2,13,0.00
2014-12-2,31.1,26.4,22.5,17.1,11.4,4.6,71,53,41,30.34,30.00,7,1,9,0.00
2014-12-3,37.0,30.0,21.9,35.5,26.8,15.4,95,88,72,30.10,29.36,8,1,11,0.08
2014-12-4,34.7,28.9,18.5,32.0,18.6,3.9,95,68,34,30.16,29.52,8,1,13,0.01
2014-12-5,29.1,22.1,13.3,19.0,9.9,1.7,73,59,51,30.35,30.08,4,0,6,0.00
2014-12-6,33.4,30.1,24.6,32.2,27.4,18.8,95,90,73,30.09,29.69,2,0,4,0.33
2014-12-7,33.1,24.7,10.8,31.8,10.3,-4.1,96,57,30,30.34,29.80,10,2,15,0.01
2014-12-8,20.3,14.0,7.2,5.3,-2.9,-8.7,56,46,35,30.44,30.18,5,1,8,0.00
2014-12-9,35.1,27.4,17.8,33.8,23.3,4.8,95,84,56,30.19,29.26,10,1,17,0.21
2014-12-10,35.4,34.7,34.0,34.2,33.5,32.7,96,95,95,29.27,28.96,9,3,17,0.70
2014-12-11,38.5,35.3,32.5,38.2,34.3,31.3,99,96,94,29.29,28.99,9,1,14,0.30
2014-12-12,37.0,33.4,31.3,35.3,31.7,27.6,97,93,86,29.40,29.29,2,0,4,0.09
2014-12-13,34.0,32.8,30.7,31.8,30.2,27.0,94,90,85,29.37,29.31,0,0,2,0.00
2014-12-14,76.8,32.8,28.0,53.3,29.9,24.4,91,89,44,30.02,29.33,2,0,6,0.06
2014-12-15,39.4,30.0,25.0,30.1,24.8,21.8,93,81,65,30.32,30.02,4,0,7,0.00
2014-12-16,33.8,31.8,28.4,32.0,29.1,24.9,95,89,86,30.37,30.14,0,0,2,0.05
2014-12-17,38.8,35.5,33.3,38.6,34.6,32.0,99,97,94,30.14,29.77,6,1,11,0.77
2014-12-18,38.3,34.6,31.6,37.1,31.2,24.8,99,88,72,29.94,29.78,8,2,14,0.11
2014-12-19,35.4,29.8,24.4,24.8,21.1,17.1,85,70,54,30.30,29.94,6,1,11,0.00
2014-12-20,33.3,24.8,20.7,21.4,16.7,14.3,78,71,60,30.54,30.30,4,1,8,0.00
2014-12-21,32.2,25.5,20.1,24.2,19.8,14.8,84,79,70,30.54,30.46,4,1,7,0.00
2014-12-22,38.1,31.8,26.8,31.2,26.7,21.8,91,81,71,30.60,30.48,4,0,6,0.01
2014-12-23,35.4,33.9,32.5,34.1,32.5,30.7,96,94,91,30.55,30.37,3,0,6,0.25
2014-12-24,36.1,34.8,33.8,35.4,34.0,32.8,98,97,96,30.40,29.86,4,0,6,0.34
2014-12-25,76.8,39.8,34.7,53.3,35.7,25.9,99,86,44,30.35,29.86,10,1,17,0.05
2014-12-26,47.3,37.8,31.8,30.4,26.6,23.9,79,64,47,30.63,30.31,8,1,13,0.00
2014-12-27,47.7,36.8,29.3,34.2,29.5,25.7,87,76,56,30.72,30.49,6,0,10,0.00
2014-12-28,46.2,40.0,34.0,45.4,36.2,26.3,98,87,67,30.49,30.19,7,2,11,0.48
2014-12-29,37.4,30.3,21.7,26.4,11.8,-63.2,73,47,26,30.68,30.44,8,2,15,0.00
2014-12-30,25.7,18.5,11.7,2.4,-3.0,-10.0,53,39,25,30.85,30.68,6,1,8,0.00
2014-12-31,76.8,17.5,10.4,53.3,0.4,-5.0,53,46,42,30.81,29.62,5,1,8,0.00
2015-1-1,76.8,25.7,16.2,53.3,3.9,-0.6,50,39,32,29.91,29.71,8,2,12,0.00
2015-1-2,32.7,26.2,18.7,17.9,5.6,-11.4,57,41,25,30.34,29.76,11,3,28,0.00